This demonstration page uses our WeatherBlox Daily Observations layout. Learn more.

40.92945, -100.16068

Hourly Observations for January 13, 2015

Temp ( °F °C ) Dew Point ( °F °C ) Humidity (%) Winds ( mph kmh ) Pressure ( in mb ) Visibility ( mi km ) Precip ( " mm )
12:15 am 00:15 Cloudy 16 -8.8 5 -14.8 62 62 SE 8 13 30.71 1040 10 16.0934 N/A
12:35 am 00:35 Cloudy 16 -9 6 -14.5 65 65 SE 8 13 30.71 1040 10 16.0934 N/A
12:55 am 00:55 Cloudy 16 -9 6 -14.6 64 64 SSE 9 15 30.71 1040 10 16.0934 N/A
1:15 am 01:15 Cloudy 15 -9.2 6 -14.5 66 66 SE 9 15 30.71 1040 10 16.0934 N/A
1:35 am 01:35 Cloudy 15 -9.3 7 -14.1 68 68 SE 7 11 30.68 1039 10 16.0934 N/A
1:55 am 01:55 Cloudy 15 -9.3 7 -13.9 70 70 SSE 10 17 30.68 1039 10 16.0934 N/A
2:15 am 02:15 Cloudy 15 -9.5 7 -14 70 70 SE 8 13 30.68 1039 10 16.0934 N/A
2:35 am 02:35 Cloudy 15 -9.7 6 -14.2 70 70 SE 8 13 30.71 1040 10 16.0934 N/A
2:55 am 02:55 Cloudy 15 -9.6 7 -14 71 71 SSE 10 17 30.71 1040 10 16.0934 N/A
3:15 am 03:15 Cloudy 15 -9.5 7 -13.8 71 71 SSE 9 15 30.68 1039 10 16.0934 N/A
3:35 am 03:35 Cloudy 15 -9.5 7 -14 70 70 SSE 9 15 30.68 1039 10 16.0934 N/A
3:55 am 03:55 Cloudy 15 -9.5 7 -14.1 69 69 SSE 9 15 30.68 1039 10 16.0934 N/A
4:15 am 04:15 Cloudy 15 -9.5 7 -14.1 69 69 SSE 9 15 30.68 1039 10 16.0934 N/A
4:35 am 04:35 Cloudy 15 -9.5 6 -14.3 68 68 SSE 8 13 30.65 1038 10 16.0934 N/A
4:55 am 04:55 Cloudy 15 -9.5 6 -14.3 68 68 SSE 12 19 30.62 1037 10 16.0934 N/A
5:15 am 05:15 Cloudy 15 -9.6 6 -14.3 69 69 SSE 12 19 30.65 1038 10 16.0934 N/A
5:35 am 05:35 Cloudy 15 -9.6 6 -14.4 68 68 SSE 10 17 30.65 1038 10 16.0934 N/A
5:55 am 05:55 Cloudy 15 -9.6 6 -14.4 68 68 SSE 9 15 30.65 1038 10 16.0934 N/A
6:15 am 06:15 Cloudy 15 -9.6 6 -14.2 69 69 SSE 10 17 30.65 1038 10 16.0934 N/A
6:35 am 06:35 Mostly Cloudy 14 -10 6 -14.6 69 69 SSE 12 19 30.65 1038 10 16.0934 N/A
6:55 am 06:55 Partly Cloudy 13 -10.5 6 -14.6 72 72 SSE 9 15 30.65 1038 10 16.0934 N/A
7:15 am 07:15 Clear 13 -10.7 6 -14.6 73 73 S 8 13 30.65 1038 10 16.0934 N/A
7:35 am 07:35 Clear 12 -11 6 -14.5 76 76 SSE 8 13 30.65 1038 10 16.0934 N/A
7:55 am 07:55 Clear 12 -11.1 6 -14.6 76 76 SSE 7 11 30.65 1038 10 16.0934 N/A
8:15 am 08:15 Mostly Cloudy 12 -11.1 6 -14.3 77 77 SSE 8 13 30.65 1038 10 16.0934 N/A
8:35 am 08:35 Cloudy 13 -10.7 6 -14.7 73 73 S 12 19 30.65 1038 10 16.0934 N/A
8:55 am 08:55 Cloudy 13 -10.7 5 -14.9 72 72 S 10 17 30.65 1038 10 16.0934 N/A
9:15 am 09:15 Cloudy 13 -10.5 6 -14.6 72 72 S 9 15 30.65 1038 10 16.0934 N/A
9:35 am 09:35 Cloudy 14 -10.2 6 -14.3 72 72 SSE 9 15 30.65 1038 10 16.0934 N/A
9:55 am 09:55 Mostly Cloudy 14 -9.8 7 -13.9 72 72 S 9 15 30.65 1038 10 16.0934 N/A
10:15 am 10:15 Partly Cloudy 17 -8.5 7 -13.7 66 66 S 9 15 30.62 1037 10 16.0934 N/A
10:35 am 10:35 Partly Cloudy 17 -8.2 7 -13.8 64 64 SSE 12 19 30.62 1037 10 16.0934 N/A
10:55 am 10:55 Sunny 18 -7.6 8 -13.4 64 64 SSE 9 15 30.62 1037 10 16.0934 N/A
11:15 am 11:15 Sunny 20 -6.8 9 -13 62 62 S 12 19 30.59 1036 10 16.0934 N/A
11:35 am 11:35 Sunny 21 -6.1 9 -12.8 59 59 S 10 17 30.56 1035 10 16.0934 N/A
11:55 am 11:55 Sunny 22 -5.5 9 -12.7 57 57 S 10 17 30.56 1035 10 16.0934 N/A
12:15 pm 12:15 Sunny 23 -5.1 8 -13.1 54 54 SSW 8 13 30.56 1035 10 16.0934 N/A
12:35 pm 12:35 Sunny 23 -4.8 9 -12.8 54 54 SSW 9 15 30.56 1035 10 16.0934 N/A
12:55 pm 12:55 Sunny 24 -4.3 10 -12.5 53 53 SSW 9 15 30.53 1034 10 16.0934 N/A
1:35 pm 13:35 Sunny 25 -4 10 -12.4 52 52 S 8 13 30.5 1033 10 16.0934 N/A
1:55 pm 13:55 Sunny 26 -3.6 10 -12 53 53 SSW 10 17 30.5 1033 10 16.0934 N/A
2:15 pm 14:15 Sunny 26 -3.2 10 -12 51 51 S 9 15 30.5 1033 10 16.0934 N/A
2:35 pm 14:35 Sunny 27 -2.9 11 -11.5 52 52 SSW 10 17 30.5 1033 10 16.0934 N/A
2:55 pm 14:55 Sunny 27 -2.8 11 -11.4 52 52 SSW 9 15 30.48 1032 10 16.0934 N/A
3:15 pm 15:15 Mostly Cloudy 27 -3 11 -11.4 53 53 SSW 10 17 30.48 1032 10 16.0934 N/A
3:35 pm 15:35 Cloudy 27 -2.7 12 -11.2 52 52 SSW 10 17 30.48 1032 10 16.0934 N/A
3:55 pm 15:55 Cloudy 27 -2.6 12 -11 53 53 SSW 9 15 30.48 1032 10 16.0934 N/A
4:15 pm 16:15 Mostly Cloudy 27 -2.7 13 -10.7 55 55 SSW 8 13 30.48 1032 10 16.0934 N/A
4:35 pm 16:35 Partly Cloudy 27 -2.6 13 -10.7 54 54 SSW 8 13 30.48 1032 10 16.0934 N/A
4:55 pm 16:55 Mostly Cloudy 27 -2.6 13 -10.5 55 55 SSW 7 11 30.48 1032 10 16.0934 N/A
5:15 pm 17:15 Partly Cloudy 26 -3.4 13 -10.5 58 58 SSW 8 13 30.48 1032 10 16.0934 N/A
5:35 pm 17:35 Clear 24 -4.3 13 -10.8 61 61 SW 5 7 30.48 1032 10 16.0934 N/A
5:55 pm 17:55 Clear 23 -5 12 -11 63 63 SSW 5 7 30.48 1032 10 16.0934 N/A
6:15 pm 18:15 Clear 22 -5.8 12 -11.1 67 67 SSW 6 9 30.5 1033 10 16.0934 N/A
6:35 pm 18:35 Clear 20 -6.8 12 -11.2 71 71 S 6 9 30.5 1033 10 16.0934 N/A
6:55 pm 18:55 Clear 20 -6.8 13 -10.8 73 73 S 7 11 30.5 1033 10 16.0934 N/A
7:15 pm 19:15 Clear 20 -6.6 13 -10.4 75 75 SSW 7 11 30.5 1033 10 16.0934 N/A
7:35 pm 19:35 Clear 20 -6.4 13 -10.5 73 73 SSW 7 11 30.5 1033 10 16.0934 N/A
7:55 pm 19:55 Clear 21 -6.3 13 -10.6 72 72 SSW 6 9 30.5 1033 10 16.0934 N/A
8:15 pm 20:15 Clear 20 -6.6 13 -10.8 72 72 WSW 3 6 30.53 1034 10 16.0934 N/A
8:35 pm 20:35 Clear 19 -7.3 13 -10.8 76 76 NW 6 9 30.53 1034 10 16.0934 N/A
8:55 pm 20:55 Mostly Cloudy 19 -7.4 13 -10.4 79 79 WSW 3 6 30.5 1033 10 16.0934 N/A
9:15 pm 21:15 Cloudy 20 -6.9 13 -10.6 75 75 SW 3 6 30.5 1033 10 16.0934 N/A
9:35 pm 21:35 Cloudy 21 -5.9 14 -10.1 73 73 SSW 3 6 30.5 1033 10 16.0934 N/A
9:55 pm 21:55 Cloudy 23 -5 14 -10 68 68 SSW 3 6 30.48 1032 10 16.0934 N/A
10:15 pm 22:15 Cloudy 23 -4.8 15 -9.6 69 69 SW 5 7 30.48 1032 10 16.0934 N/A
10:35 pm 22:35 Cloudy 22 -5.5 14 -10 71 71 WSW 6 9 30.48 1032 10 16.0934 N/A
10:55 pm 22:55 Cloudy 23 -4.8 14 -9.8 68 68 WSW 6 9 30.48 1032 10 16.0934 N/A
11:15 pm 23:15 Partly Cloudy 21 -6 13 -10.5 71 71 WSW 6 9 30.5 1033 10 16.0934 N/A
11:35 pm 23:35 Clear 21 -6 13 -10.5 71 71 WSW 5 7 30.5 1033 10 16.0934 N/A
11:55 pm 23:55 Clear 19 -7 12 -11 73 73 W 3 6 30.5 1033 10 16.0934 N/A

Powered by AerisWeather